TimeCDT,TemperatureF,Dew PointF,Humidity,Sea Level PressureIn,VisibilityMPH,Wind Direction,Wind SpeedMPH,Gust SpeedMPH,PrecipitationIn,Events,Conditions,WindDirDegrees,DateUTC
12:15 AM,54.5,46.0,73,30.17,10.0,North,5.8,-,N/A,,Overcast,360,2012-10-08 05:15:00
1:15 AM,54.0,47.3,78,30.17,10.0,NNE,5.8,-,N/A,,Overcast,20,2012-10-08 06:15:00
1:35 AM,54.0,47.3,78,30.19,10.0,North,9.2,-,N/A,,Overcast,10,2012-10-08 06:35:00
1:55 AM,53.8,47.1,78,30.19,10.0,North,10.4,-,N/A,,Overcast,10,2012-10-08 06:55:00
2:15 AM,53.6,47.3,79,30.19,10.0,North,10.4,-,N/A,,Overcast,360,2012-10-08 07:15:00
2:35 AM,53.1,47.3,81,30.20,10.0,North,10.4,16.1,N/A,,Overcast,360,2012-10-08 07:35:00
2:55 AM,52.7,46.8,80,30.19,10.0,North,10.4,-,N/A,,Overcast,10,2012-10-08 07:55:00
3:15 AM,52.3,46.4,80,30.19,10.0,North,10.4,-,N/A,,Overcast,10,2012-10-08 08:15:00
3:35 AM,52.0,46.2,81,30.19,10.0,North,9.2,-,N/A,,Overcast,360,2012-10-08 08:35:00
3:55 AM,51.8,45.5,79,30.19,10.0,North,12.7,-,N/A,,Overcast,10,2012-10-08 08:55:00
4:15 AM,50.0,45.1,83,30.19,10.0,NNE,10.4,-,N/A,,Drizzle,20,2012-10-08 09:15:00
4:35 AM,49.3,45.7,87,30.19,10.0,North,10.4,-,N/A,Rain,Light Rain,360,2012-10-08 09:35:00
4:55 AM,49.1,45.7,88,30.19,10.0,NE,8.1,-,N/A,Rain,Light Rain,40,2012-10-08 09:55:00
5:15 AM,49.1,45.7,88,30.20,10.0,North,8.1,-,N/A,,Overcast,10,2012-10-08 10:15:00
5:35 AM,48.7,45.9,90,30.21,10.0,North,9.2,-,N/A,,Overcast,360,2012-10-08 10:35:00
5:55 AM,48.6,45.7,90,30.22,10.0,North,6.9,-,N/A,,Overcast,10,2012-10-08 10:55:00
6:15 AM,48.6,45.5,89,30.22,10.0,North,6.9,-,N/A,,Overcast,10,2012-10-08 11:15:00
6:35 AM,48.6,45.5,89,30.22,10.0,North,9.2,-,N/A,,Overcast,360,2012-10-08 11:35:00
8:35 AM,50.2,45.9,85,30.24,10.0,North,4.6,-,N/A,,Overcast,360,2012-10-08 13:35:00
8:55 AM,52.5,46.6,80,30.24,10.0,NE,4.6,-,N/A,,Overcast,40,2012-10-08 13:55:00
9:15 AM,54.5,46.4,74,30.25,10.0,NE,4.6,-,N/A,,Overcast,50,2012-10-08 14:15:00
10:15 AM,55.6,45.9,70,30.26,10.0,Calm,Calm,-,N/A,,Overcast,0,2012-10-08 15:15:00
10:35 AM,56.3,46.0,68,30.25,10.0,ENE,3.5,-,N/A,,Overcast,60,2012-10-08 15:35:00
10:55 AM,56.8,46.6,69,30.25,10.0,Calm,Calm,-,N/A,,Overcast,0,2012-10-08 15:55:00
11:15 AM,57.9,46.4,65,30.25,10.0,North,3.5,-,N/A,,Overcast,10,2012-10-08 16:15:00
11:35 AM,58.8,46.4,63,30.24,10.0,NNE,8.1,-,N/A,,Overcast,20,2012-10-08 16:35:00
12:15 PM,60.3,47.1,62,30.24,10.0,NE,3.5,-,N/A,,Overcast,40,2012-10-08 17:15:00
12:35 PM,59.9,46.8,62,30.23,10.0,North,4.6,-,N/A,,Overcast,10,2012-10-08 17:35:00
1:15 PM,59.7,46.9,63,30.22,10.0,NNW,5.8,-,N/A,,Overcast,330,2012-10-08 18:15:00
1:35 PM,60.3,47.5,63,30.20,10.0,North,5.8,-,N/A,,Overcast,10,2012-10-08 18:35:00
1:55 PM,62.8,48.4,59,30.19,10.0,WNW,9.2,-,N/A,,Overcast,300,2012-10-08 18:55:00
2:35 PM,61.2,46.8,59,30.17,10.0,NNW,3.5,-,N/A,,Overcast,340,2012-10-08 19:35:00
4:55 PM,59.9,47.3,63,30.16,10.0,North,10.4,-,N/A,,Overcast,10,2012-10-08 21:55:00
5:15 PM,59.9,46.8,62,30.15,10.0,NNE,6.9,-,N/A,,Mostly Cloudy,30,2012-10-08 22:15:00
5:55 PM,57.9,47.3,68,30.15,10.0,NNE,11.5,-,N/A,,Mostly Cloudy,30,2012-10-08 22:55:00
10:55 PM,45.0,44.8,99,30.16,10.0,Calm,Calm,-,N/A,,Clear,0,2012-10-09 03:55:00